Regional Weather Roundup
Issued by NWS Wakefield, VA

Home | Current Version | Previous Version | Graphics & Text | Print | Product List | Glossary On
Versions: 1 2 3 4 5 6 7 8 9 10 11 12 13 14 15 16 17 18 19 20 21 22 23 24 25 26 27
000
ASUS41 KAKQ 082315
RWRAKQ

REGIONAL WEATHER ROUNDUP
NATIONAL WEATHER SERVICE WAKEFIELD VA
600 PM EST THU DEC 08 2016

Note: "fair" indicates few or no clouds below 12,000 feet with no
significant weather and/or obstructions to visibility. * = Denotes
station may not report precipitation (e.g., rain,snow,etc.),
thunder or fog.

VAZ042-051-052>054-056-090000-
NORTHERN VIRGINIA

CITY           SKY/WX    TMP DP  RH WIND       PRES   REMARKS
WASH NATIONAL  PTCLDY    44  16  32 NW9       30.09R
DULLES         PTCLDY    39  15  37 NW13      30.10R
FORT BELVOIR   PTCLDY    42  17  36 NW13      30.09R
QUANTICO       MOCLDY    44  16  32 VRB6      30.11R
FREDERICKSBRG* CLOUDY    44  23  44 NW6       30.09R
STAFFORD*      PTCLDY    40  18  41 NW5       30.13R
WARRENTON      MOCLDY    41   4  21 NW8G16    30.09R
CULPEPER*      PTCLDY    41  14  32 NW6       30.11R
MANASSAS*      CLEAR    N/A N/A N/A N12       30.11
LEESBURG*      CLEAR     39  21  48 W13       30.11R
WINCHESTER     CLEAR     34  14  44 W20       30.10R WCI  22
FRONT ROYAL*   FAIR      36  14  41 W9G22     30.10R
LURAY*         FAIR      37  16  41 W17G25    30.11R
$$

VAZ048-049-060>072-079>083-090000-
CENTRAL AND SOUTH CENTRAL VIRGINIA

CITY           SKY/WX    TMP DP  RH WIND       PRES   REMARKS
RICHMOND       CLOUDY    45  20  36 W13       30.10R
CHESTERFIELD*  FAIR      45  12  26 W9        30.11R
PETERSBURG*    MOCLDY    41  21  44 SW6       30.12R
HANOVER        MOCLDY    44  21  40 W9        30.11R
TAPPAHANNOCK*  MOCLDY    45  19  36 SW6       30.09R
QUINTON*       FAIR      44  21  40 W5        30.09R
CHARLOTTSVILLE PTCLDY    41  13  31 N5        30.10R
GORDONSVILLE*  FAIR      43  10  26 W8        30.09R
ORANGE*          N/A     39  19  45 CALM      30.11R
LOUISA*        PTCLDY    43  27  52 W6        30.09R
BUMPASS*       FAIR      41  22  46 W6        30.09R
FARMVILLE*     CLOUDY    40  26  56 CALM      30.11R
CREWE*         FAIR      43  22  42 W3        30.12R
FORT PICKETT*  FAIR      43  12  29 W9G16     30.12R
CHASE CITY*    FAIR      39  23  53 CALM      30.14R
CLARKSVILLE*   FAIR      39  25  56 CALM      30.15R
SOUTH HILL*    CLEAR     41  23  48 W5        30.19R
LAWRENCEVILLE* FAIR      42  20  42 CALM      30.13R
EMPORIA*       PTCLDY    43  23  45 W6        30.15R
$$

VAZ088>098-090000-
SOUTHEAST VIRGINIA

CITY           SKY/WX    TMP DP  RH WIND       PRES   REMARKS
NORFOLK        PTCLDY    44  41  89 CALM      30.07R
VIRGINIA BEACH PTCLDY    42  38  85 CALM      30.07R
NORFOLK NAVAL  MOCLDY    41  39  93 SE3       30.09R
WEST POINT*    PTCLDY    45  21  38 W6        30.11R
SALUDA*        FAIR      42  31  65 W3        30.07R
NEWPORT NEWS   PTCLDY    43  35  73 NW5       30.08R
LANGLEY AFB    PTCLDY    40  38  93 NW5       30.07R
FORT EUSTIS    PTCLDY    47  25  42 NW12      30.06R
WILLIAMSBURG*  CLEAR     46  25  42 N10G20    30.09R
HR EXEC AP*    FAIR      37  32  81 W3        30.07R
FRANKLIN*      PTCLDY    44  25  47 W9        30.11R
US460-WAKEFLD  PTCLDY    44  24  45 VRB6      30.10R
$$

VAZ020-022-025-037-045-090000-
WEST CENTRAL AND SOUTHWEST VIRGINIA

CITY           SKY/WX    TMP DP  RH WIND       PRES   REMARKS
STAUNTON*      CLEAR     35  12  37 CALM      30.12R
WAYNESBORO*    FAIR      35  10  35 W6        30.09R
HOT SPRINGS VA CLEAR     25   7  46 W15G29    29.99R WCI  12
LYNCHBURG      CLOUDY    41   9  26 W6        30.14R
DANVILLE       CLOUDY    42  19  39 W5        30.16R
SOUTH BOSTON*  FAIR      42  19  39 W3        30.15R
MARTINSVILLE   MOCLDY    41   6  23 N9        30.19R
ROANOKE        PTCLDY    39  10  30 NW14      30.17R
BLACKSBURG     CLEAR     33  14  45 W9G17     30.16R
DUBLIN*        CLEAR     34  15  46 NW13G20   30.17R WCI  25
MARION*        CLEAR     32  13  45 W15G24    30.18R WCI  22
HILLSVILLE*    CLEAR     32   9  38 NW15G23   30.12R WCI  22
RICHLANDS*     FAIR      30  16  56 NW6       30.19R
WISE*          CLEAR     32  12  43 NW9       30.22R
ABINGDON*      CLEAR     36  12  37 NW9       30.22R
$$

MDZ021>025-VAZ099-100-090000-
SOUTHERN MARYLAND AND THE DELMARVA PENINSULA

CITY           SKY/WX    TMP DP  RH WIND       PRES   REMARKS
PATUXENT RIVER CLOUDY    44  26  49 W13       30.06R
BAY BRIDGE APT MOCLDY    43  19  39 NW15      30.05R
LEONARDTOWN    NOT AVBL
DOVER          CLOUDY    42  25  51 W8        30.01R
GEORGETOWN     MOCLDY    43  24  47 W6        30.03R
EASTON         MOCLDY    45  18  33 NW12G18   30.07R
CAMBRIDGE      CLOUDY    43  23  45 NW9       30.05R
SALISBURY      PTCLDY    41  35  79 SW5       30.05R
OCEAN CITY     PTCLDY    40  36  86 SW6       30.04R
WALLOPS ISLAND CLEAR     38  37  97 CALM      30.07R
ACCOMACK*      CLEAR     38  37  97 W3        30.07R FOG
$$

NCZ012>017-030>032-090000-
NORTH CENTRAL AND EASTERN NORTH CAROLINA

CITY           SKY/WX    TMP DP  RH WIND       PRES   REMARKS
ROANOKE RAPIDS FAIR      45  27  49 NW6       30.14R
RALEIGH        MOCLDY    46  20  35 W6        30.17R
ELIZABETH CITY CLOUDY    46  36  68 W7        30.08R
AHOSKIE*       MOCLDY    45  24  43 NW5       30.12R
EDENTON*       CLOUDY    50  32  49 NW8       30.10R
CURRITUCK*     CLOUDY    47  38  70 CALM      30.09R
KILL DEVIL HLS CLOUDY    49  42  75 CALM      30.07R
MANTEO         CLOUDY    49  38  65 NW7       30.08R
CAPE HATTERAS  CLOUDY    52  41  66 NW14G22   30.07R
TARBORO*       NOT AVBL
GOLDSBORO      CLOUDY    49  22  34 NW6       30.13R
WASHINGTON     CLOUDY    47  27  44 NW5       30.12R
GREENVILLE     CLOUDY    48  28  46 W5        30.14R
NEW BERN       MOCLDY    49  27  42 NW8       30.14R
WILMINGTON     PTCLDY    50  34  54 NW12      30.15R
$$

VAZ048-090000-
ELSEWHERE

CITY           SKY/WX    TMP DP  RH WIND       PRES   REMARKS
HARRISBURG PA  PTCLDY    36  19  50 NW18G31   30.05R
BALTIMORE      PTCLDY    39  17  41 W12       30.06R
ANNAPOLIS      PTCLDY    45  18  34 NW10G16   30.06R
ANDREWS AFB    PTCLDY    42  14  33 NW17      30.06R
PHILADELPHIA   MOCLDY    42  18  37 W16G22    30.01R
HENDERSON NC   MOCLDY    40  19  42 NW3       30.14R
GREENSBORO     MOCLDY    40  22  48 NW8       30.16R
ROCKY MOUNT    PTCLDY    46  26  45 NW8       30.16R
$$

VAZ100-090000-
MARINE

STATION/POSITION TIME  TEMP    WIND        PRES    WAVE   SWELL
                       AIR SEA DIR/SP/G            HT/PER HT/PER
                 (UTC) (F)     (DEG/KT/KT) (MB)    (FT/S) (FT/S)
BRANDYWINE LGT   2248   45     290/ 17/ 21   N/A
CAPE MAY NJ      2248   45 47  300/ 15/ 20 1015.7R
LEWES DE         2248   43 48  290/ 10/ 12 1016.4R
OCEAN-CITY-INLET 2248          260/  6/  7   N/A
WACHAPREAGUE VA  2248   41 48  260/  2/  3 1018.1R
THOMAS POINT MD  2300   44 48  300/ 16/ 19   N/A
GOOSES REEF MD   2300   46 49  300/ 19/ 23 1019.1    1/ 2
COVE POINT MD    2248   45     320/ 10/ 14 1018.4R
SOLOMONS ISLAND  2248          270/  7/ 11   N/A
BISHOPS HEAD MD  2248   47 47  280/ 16/ 18 1018.1R
PINEY POINT MD   2248          310/ 12/ 15   N/A
POTOMAC MD       2300   48 50  280/ 14/ 16 1017.1    2/ 3
CAMBRIDGE MD     2248   46 47  300/ 14/ 18 1016.8R
LEWISETTA VA     2248   46 49  280/  7/  9 1017.8R
RAPPAHANNOCK LGT 2248          310/  8/  8 1018.7R
STINGRAY PT      2300   46     320/ 10/ 14 1018.7    0
YORK RVR RNG VA  2248   47     340/  5/  6 1018.0R
YORKTOWN VA      2248   48 51  330/ 12/ 13 1018.1R
JAMESTOWN VA     2300   48 51  300/ 14/ 16   N/A     1
DOMINION TERM VA 2248   49     290/ 12/ 13 1018.1R
KIPTOPEKE VA     2248      52   10/  2/  3   N/A
CHES BAY BRIDGE  2248   47 52  340/  6/  6 1018.1R
CAPE HENRY VA    2248   47     320/  6/  7   N/A
WILLOUBY STN VA  2248   47     360/  5/  5 1019.1R
S CRANEY ISL VA  2248   47     270/  2/  3 1017.9R
CAPE HENRY BUOY  2242      54                N/A     3/ 9   2/11
CAPE CHARLES BUO 2256      54                N/A     2/10
OFFSHORE WE BUOY 2251      55                N/A     3/ 8   2/11
64NM E OF VA BCH 2250   51 59  330/ 19/ 23 1016.9R   4/ 4   2/ 8
DUCK PIER NC     2248   49 54  320/  9/ 11 1017.9R
44100 DUCK FRF   2235      56                N/A     4/11   2/11
OREGON INLET NC  2248          310/ 12/ 17   N/A
HATTERAS NC      2248   53 60  310/ 21/ 25 1017.9R
DIAMOND SHLS NC  2250   56 77  320/ 21/ 27 1017.4R   5/ 9   3/ 9
CAPE LOOKOUT NC  2300   52     330/ 13/ 16 1019.6R
$$




USA.gov is the U.S. government's official web portal to all federal, state and local government web resources and services.